Terminal Aerodrome Forecast
Issued by NWS Corpus Christi, TX

Home | Current Version | Previous Version | Text Only | Print | Product List | Glossary On
Versions: 1 2 3 4 5 6 7 8 9 10 11 12 13 14 15 16 17 18 19
000
FTUS44 KCRP 240524
TAFCRP
TAF
KCRP 240524Z 2406/2506 14009KT P6SM SKC
     FM241500 17015G22KT P6SM FEW035
     FM242000 14016G23KT P6SM FEW050
     FM250100 14013KT P6SM SKC=

USA.gov is the U.S. government's official web portal to all federal, state and local government web resources and services.